Location: Downe
(51.3167°N, 0.0500°E)
Time: 03:42:33
(UTC+00:00)

CZ-4B DEB - Pass Details

Date: 17 November 2019
Orbit: 840 x 862 km, 99.1° (Epoch: 06 December)

Event Time Altitude Azimuth Distance (km) Brightness Sun altitude
Rises 06:01:06 0° 13° (NNE) 3,410 7.3 -12.2°
Reaches altitude 10° 06:03:30 10° 9° (N) 2,472 6.6 -11.8°
Maximum altitude 06:08:51 57° 293° (WNW) 990 4.2 -11.0°
Drops below altitude 10° 06:14:11 10° 216° (SW) 2,465 6.4 -10.2°
Sets 06:16:35 0° 212° (SSW) 3,400 7.2 -9.9°
